Location: Bakov nad Jizerou
(50.4784°N, 14.9394°E)
Time: 07:06:17
(UTC+00:00)

EO 1 Del DPAF - Pass Details

Date: 16 June 2021
Orbit: 506 x 507 km, 98.0° (Epoch: 28 July)

Event Time Altitude Azimuth Distance (km) Brightness Sun altitude
Rises 23:09:26 0° 20° (NNE) 2,624 8.2 -16.1°
Reaches altitude 10° 23:11:38 10° 28° (NNE) 1,733 6.9 -16.1°
Maximum altitude 23:15:09 39° 99° (E) 779 4.0 -16.1°
Enters shadow 23:16:34 27° 146° (SE) 996 4.2 -16.1°
